NU4F Weather Reports


time (UTC)temp
C
wind
direction
speed
KPH
gust
KPH
rain 1hr
cm
rain 24hr
cm
rain mn
cm
humidity
%
barometer
mb
20260505031517 23 50 6.4 19.3 0.00 0.99 0.99 83 1014.5
20260505030537 23 48 4.8 9.7 0.00 0.99 0.99 82 1014.4
20260505025517 23 59 4.8 9.7 0.00 0.99 0.99 82 1014.6
20260505024517 23 58 3.2 9.7 0.00 0.99 0.99 82 1014.8
20260505023538 23 69 3.2 6.4 0.00 0.99 0.99 82 1014.8
20260505022538 23 48 6.4 11.3 0.00 0.99 0.99 82 1014.6
20260505021518 23 48 6.4 11.3 0.13 0.99 0.99 83 1014.5
20260505020518 23 48 6.4 9.7 0.18 0.99 0.99 84 1014.7
20260505015518 23 49 6.4 12.9 0.18 0.99 0.99 84 1014.7
20260505014519 23 48 6.4 9.7 0.18 0.99 0.99 84 1014.5
20260505013516 23 47 4.8 8.0 0.18 0.99 0.99 85 1014.5
20260505012516 23 49 4.8 11.3 0.18 0.99 0.99 85 1014.4
20260505011516 23 88 6.4 14.5 0.08 0.86 0.86 83 1014.4
20260505010516 24 97 6.4 12.9 0.00 0.81 0.81 80 1014.2
20260505005516 24 87 6.4 11.3 0.00 0.81 0.81 79 1014.2
20260505004516 25 85 8.0 14.5 0.00 0.81 0.81 77 1014.1
20260505003516 25 66 4.8 11.3 0.00 0.81 0.81 71 1014.0
20260505002517 25 59 4.8 14.5 0.00 0.81 0.81 71 1014.0
20260505001517 25 58 6.4 12.9 0.00 0.81 0.81 71 1013.9
20260505000537 25 54 8.0 14.5 0.00 0.81 0.81 70 1013.9
20260504235517 25 50 4.8 11.3 0.00 0.81 0.81 70 1013.8
20260504234518 25 48 8.0 17.7 0.00 0.81 0.81 70 1013.8
20260504233518 25 55 8.0 16.1 0.00 0.81 0.81 70 1013.8
20260504232518 25 62 8.0 17.7 0.00 0.81 0.81 70 1013.7
20260504231518 25 57 8.0 14.5 0.00 0.81 0.81 70 1013.6
20260504230518 25 63 6.4 16.1 0.00 0.84 0.81 70 1013.6
20260504225618 25 60 8.0 20.9 0.00 0.84 0.81 69 1013.6
20260504224515 25 59 8.0 16.1 0.00 0.86 0.81 69 1013.5
20260504223516 25 59 8.0 16.1 0.00 0.86 0.81 69 1013.5
20260504222519 25 53 9.7 16.1 0.00 0.86 0.81 68 1013.6
20260504221516 25 61 6.4 12.9 0.00 0.86 0.81 69 1013.7
20260504220516 26 62 8.0 17.7 0.00 0.86 0.81 69 1013.6
20260504215516 26 54 6.4 14.5 0.00 0.86 0.81 68 1013.7
20260504214516 26 54 8.0 16.1 0.00 0.86 0.81 68 1013.5
20260504213516 26 40 8.0 14.5 0.03 0.86 0.81 69 1013.5
20260504212517 25 59 9.7 24.1 0.03 0.86 0.81 70 1013.8
20260504211537 25 47 8.0 19.3 0.03 0.86 0.81 71 1013.8
20260504210518 25 52 8.0 16.1 0.03 0.86 0.81 73 1013.9
20260504205517 25 50 9.7 17.7 0.03 0.86 0.81 73 1013.7
20260504204518 25 59 4.8 14.5 0.03 0.86 0.81 71 1013.5
20260504203517 25 17 4.8 9.7 0.00 0.84 0.79 70 1013.8
20260504202518 25 24 8.0 16.1 0.00 0.84 0.79 70 1013.9
20260504201518 25 41 8.0 16.1 0.00 0.84 0.79 70 1013.9
20260504200518 26 45 9.7 24.1 0.00 0.84 0.79 69 1013.8
20260504195518 26 45 9.7 19.3 0.00 0.84 0.79 68 1014.1
20260504194559 26 47 11.3 19.3 0.00 0.84 0.79 69 1014.1
20260504193516 26 47 9.7 19.3 0.00 0.84 0.79 69 1014.1
20260504192516 25 45 9.7 16.1 0.00 0.84 0.79 70 1014.5
20260504191516 25 54 11.3 19.3 0.00 0.84 0.79 70 1014.6
20260504190516 25 60 9.7 19.3 0.00 0.84 0.79 70 1014.6
20260504185516 25 47 9.7 16.1 0.00 0.84 0.79 69 1014.6
20260504184536 26 61 11.3 19.3 0.00 0.84 0.79 68 1014.8
20260504183516 26 46 8.0 19.3 0.00 0.84 0.79 68 1014.8
20260504182517 26 59 9.7 17.7 0.00 0.84 0.79 67 1015.4
20260504181517 26 59 9.7 19.3 0.00 0.84 0.79 69 1015.2
20260504180517 26 56 9.7 19.3 0.00 0.84 0.79 69 1014.9
20260504175517 26 36 11.3 24.1 0.00 0.84 0.79 69 1015.0
20260504174517 26 35 9.7 16.1 0.00 0.86 0.79 70 1015.2
20260504173518 26 51 8.0 20.9 0.00 0.91 0.79 70 1015.7
20260504172518 25 50 9.7 30.6 0.05 0.94 0.79 74 1015.5
20260504171518 25 64 11.3 16.1 0.10 0.94 0.79 76 1015.4
20260504151017 25 50 6.4 16.1 0.00 0.86 0.69 73 1015.5
20260504141039 25 15 6.4 14.5 0.00 0.86 0.69 79 1014.9
20260504081018 22 313 1.6 4.8 0.69 1.55 0.69 89 1012.5
20260504050021 23 23 1.6 3.2 0.00 0.86 0.00 82 1014.7
20260504045022 23 52 3.2 6.4 0.00 0.86 0.00 83 1014.5
20260504044022 23 54 3.2 6.4 0.00 0.86 0.00 83 1014.7
20260504043022 23 47 3.2 6.4 0.00 0.86 0.00 83 1014.6
20260504042022 23 46 1.6 4.8 0.00 0.86 0.00 83 1014.7
20260504041022 23 42 3.2 4.8 0.00 0.86 0.00 83 1014.9
20260504040042 23 54 1.6 4.8 0.00 0.86 0.00 83 1015.0
20260504035023 23 49 3.2 6.4 0.00 0.86 0.86 82 1015.1
20260504034020 23 61 3.2 8.0 0.00 0.86 0.86 83 1015.1
20260504033042 23 54 1.6 6.4 0.00 0.86 0.86 83 1015.1